This demonstration page uses our WeatherBlox Daily Observations layout. Learn more.

Left ArrowRight Arrow

Hourly Observations for October 3, 2019

Temp ( °F °C ) Dew Point ( °F °C ) Humidity (%) Winds ( mph kmh ) Pressure ( in mb ) Visibility ( mi km ) Precip ( " mm )
12:53 am 00:53 Clear 69 20.6 65 18.3 87 87 Calm 29.93 1014 10 16 0.00 0.00
1:53 am 01:53 Clear 67 19.4 64 17.8 91 91 Calm 29.94 1014 10 16 0.00 0.00
2:53 am 02:53 Clear 66 18.9 64 17.8 93 93 Calm 29.94 1014 10 16 0.00 0.00
3:53 am 03:53 Clear 64 17.8 63 17.2 96 96 Calm 29.94 1014 10 16 0.00 0.00
4:53 am 04:53 Clear 63 17.2 62 16.7 97 97 Calm 29.94 1014 8 13 0.00 0.00
5:53 am 05:53 Clear 63 17.2 62 16.7 97 97 Calm 29.95 1014 10 16 0.00 0.00
6:53 am 06:53 Clear 61 16.1 59 15 93 93 Calm 29.97 1015 7 11 0.00 0.00
7:53 am 07:53 Sunny with Mist and Fog 62 16.7 61 16.1 96 96 Calm 29.97 1015 6 10 0.00 0.00
8:53 am 08:53 Sunny 70 21.1 66 18.9 87 87 Calm 29.97 1015 10 16 0.00 0.00
9:53 am 09:53 Sunny 78 25.6 65 18.3 64 64 VRB 6 9 29.98 1015 10 16 0.00 0.00
10:53 am 10:53 Sunny 83 28.3 65 18.3 55 55 W 8 13 29.98 1015 10 16 0.00 0.00
11:53 am 11:53 Sunny 86 30 66 18.9 51 51 W 7 11 29.98 1015 10 16 0.00 0.00
12:53 pm 12:53 Sunny 91 32.8 66 18.9 44 44 W 8 13 29.97 1015 10 16 0.00 0.00
1:53 pm 13:53 Partly Cloudy 91 32.8 65 18.3 42 42 WNW 13 20 29.96 1015 10 16 0.00 0.00
2:53 pm 14:53 Mostly Sunny 90 32.2 66 18.9 45 45 W 10 17 29.96 1015 10 16 0.00 0.00
3:53 pm 15:53 Mostly Cloudy 89 31.7 68 20 50 50 WNW 17 28 29.97 1015 10 16 0.00 0.00
4:53 pm 16:53 Mostly Cloudy 86 30 67 19.4 53 53 WNW 15 24 29.99 1016 10 16 0.00 0.00
5:53 pm 17:53 Sunny 85 29.4 64 17.8 50 50 WNW 9 15 30.00 1016 10 16 0.00 0.00
6:53 pm 18:53 Sunny 81 27.2 63 17.2 54 54 NW 16 26 30.02 1017 10 16 0.00 0.00
7:53 pm 19:53 Clear 77 25 61 16.1 58 58 NW 15 24 30.05 1018 10 16 0.00 0.00
8:53 pm 20:53 Clear 73 22.8 59 15 62 62 NNW 13 20 30.07 1018 10 16 0.00 0.00
9:53 pm 21:53 Clear 69 20.6 58 14.4 68 68 NNW 9 15 30.09 1019 10 16 0.00 0.00
10:53 pm 22:53 Clear 67 19.4 58 14.4 73 73 NW 6 9 30.11 1020 10 16 0.00 0.00
11:53 pm 23:53 Clear 64 17.8 56 13.3 75 75 NNW 5 7 30.12 1020 10 16 0.00 0.00

Powered by AerisWeather